This is the latest recevied weather packets stored in our database for station/object DL9GRB-13. If no packets are shown the sender has not sent any weather packets the latest 10 day(s).
| Time | Temp. | Humidity | Pressure | Rain* | Wind** | Luminosity | Snow |
|---|---|---|---|---|---|---|---|
| 1778000108 | 14.44° C | 58% | 1009.1 hPa | 0 mm | - | 65 W/m² | - |
| 1777999928 | 13.89° C | 57% | 1009.1 hPa | 0 mm | - | 66 W/m² | - |
| 1777999748 | 13.89° C | 58% | 1009.3 hPa | 0 mm | - | 61 W/m² | - |
| 1777999568 | 13.89° C | 57% | 1009.2 hPa | 0 mm | - | 61 W/m² | - |
| 1777999388 | 14.44° C | 57% | 1009.3 hPa | 0 mm | - | 63 W/m² | - |
| 1777999208 | 14.44° C | 56% | 1009.2 hPa | 0 mm | - | 77 W/m² | - |
| 1777999028 | 14.44° C | 57% | 1009.2 hPa | 0 mm | - | 73 W/m² | - |
| 1777998848 | 14.44° C | 56% | 1009.1 hPa | 0 mm | - | 110 W/m² | - |
| 1777998668 | 14.44° C | 57% | 1009.3 hPa | 0 mm | - | 114 W/m² | - |
| 1777998488 | 14.44° C | 57% | 1009.2 hPa | 0 mm | - | 118 W/m² | - |
| 1777998308 | 14.44° C | 58% | 1009.2 hPa | 0 mm | - | 93 W/m² | - |
| 1777998128 | 14.44° C | 58% | 1009.3 hPa | 0 mm | - | 126 W/m² | - |
| 1777997948 | 14.44° C | 57% | 1009.3 hPa | 0 mm | - | 131 W/m² | - |
| 1777997768 | 14.44° C | 58% | 1009.2 hPa | 0 mm | - | 133 W/m² | - |
| 1777997588 | 14.44° C | 60% | 1009.3 hPa | 0 mm | - | 138 W/m² | - |
| 1777997408 | 14.44° C | 59% | 1009.2 hPa | 0 mm | - | 112 W/m² | - |
| 1777997228 | 14.44° C | 57% | 1009.4 hPa | 0 mm | - | 126 W/m² | - |
| 1777997048 | 14.44° C | 58% | 1009.2 hPa | 0 mm | - | 110 W/m² | - |
| 1777996868 | 14.44° C | 57% | 1009.3 hPa | 0 mm | - | 136 W/m² | - |
| 1777996688 | 15° C | 57% | 1009.3 hPa | 0 mm | - | 105 W/m² | - |
| 1777996508 | 15° C | 58% | 1009.1 hPa | 0 mm | - | 154 W/m² | - |
| 1777996328 | 15° C | 57% | 1009.3 hPa | 0 mm | - | 170 W/m² | - |
| 1777996148 | 15° C | 57% | 1009 hPa | 0 mm | - | 175 W/m² | - |
| 1777995968 | 15° C | 58% | 1009.2 hPa | 0 mm | - | 190 W/m² | - |
| 1777995788 | 15° C | 59% | 1009.3 hPa | 0 mm | - | 205 W/m² | - |
* Rain latest hour (hover to see other rain measurements)
** Current wind speed in m/s (hover to see current wind gust speed)